{"data":{"norad_id":66894,"intl_designator":"2025-283S","name":"STARLINK-35718","alt_names":[],"object_type":"PAYLOAD","status":"ACTIVE","operator":null,"country":"US","launch_date":"2025-12-04","launch_site_code":"AFWTR","launch_vehicle":null,"mission":null,"orbit_class":"UNKNOWN","rcs_meters":null,"size_class":null,"mass_kg":null,"dimensions":null,"purposes":["comms"],"wikipedia_slug":null,"has_3d_model":false,"image_url":null,"decayed_at":null,"tle_current":{"epoch":"2026-05-24T23:02:48.007104Z","epoch_age_seconds":72403,"freshness":"FRESH","line1":"1 66894U 25283S   26144.96027786  .00030148  00000+0  10261-2 0  9992","line2":"2 66894  53.1592  29.7455 0000583 118.6211 241.4848 15.30193983 27527","mean_motion":15.30193983,"eccentricity":5.83e-5,"inclination_deg":53.1592,"raan_deg":29.7455,"arg_perigee_deg":118.6211,"mean_anomaly_deg":241.4848,"bstar":0.0010261,"rev_number":2752,"period_min":94.105715745714,"perigee_km":474.83348368257,"apogee_km":475.63258662867,"semimajor_km":6853.3700351556,"source":"CELESTRAK","updated_at":"2026-05-25T13:38:21.381526Z"}}}